Location: Batang Balui
(2.7000°N, 113.7833°E)
Time: 05:38:06
(UTC+00:00)

AO-109 - Pass Details

Date: 10 April 2023
Orbit: 441 x 460 km, 60.7° (Epoch: 06 June)

Event Time Altitude Azimuth Distance (km) Brightness Sun altitude
Rises 11:57:18 0° 342° (NNW) 2,416 ? -22.1°
Reaches altitude 10° 11:59:25 10° 347° (NNW) 1,552 ? -22.6°
Enters shadow 12:00:47 22° 356° (N) 1,031 ? -23.0°
